Wind_Speed
24 24 24 24 24 23 23 23 23 22 21 21 21 20 19 19 19 18 18 18 17 17 16 15 15 15 16 16 15 14 14 14 15 17 13 9 13 20 21 23 25 27 28 26 25 22 19 16 12 10 9 8 7 6 8 12 8 6 5 4 4 4 5 5 5 7 11 15 13 16 17 13 14 15 11 8 6 4 7 8 7 9 8 8 12 16 18 19
23 24 24 24 24 24 24 23 23 23 22 21 21 20 20 19 19 19 18 18 18 18 17 16 15 15 16 16 15 14 14 13 13 14 13 11 14 17 19 23 26 27 28 28 25 22 19 15 13 12 11 9 8 8 8 10 10 8 6 9 7 7 7 5 5 6 9 10 13 19 15 11 11 10 12 12 10 9 9 9 9 10 11 14 17 18 19 18
21 22 23 24 24 24 24 24 24 23 22 22 21 21 20 20 19 19 19 18 18 18 18 17 16 16 17 16 15 15 13 13 11 11 12 13 14 14 17 21 25 25 26 27 24 22 17 12 12 14 13 11 10 10 9 8 9 8 9 13 6 6 6 7 8 4 7 9 12 19 13 11 10 8 12 11 9 10 7 4 5 9 11 17 20 19 19 18
19 20 21 22 22 23 23 24 24 23 23 22 22 21 21 20 20 19 19 19 19 19 18 17 16 17 17 16 16 15 14 14 10 9 11 11 13 13 14 18 22 23 23 25 25 23 18 16 16 15 14 14 12 12 13 11 11 12 14 12 1 2 9 11 10 4 10 11 12 20 16 11 9 9 12 10 12 12 7 4 3 5 11 17 21 20 19 18
18 19 19 20 21 21 22 23 23 23 23 23 22 22 21 21 20 20 20 20 20 19 19 17 17 18 18 17 16 15 15 13 7 4 7 8 10 11 13 16 20 21 21 24 26 25 22 21 19 18 18 16 15 16 17 14 11 13 15 12 5 4 10 11 9 3 14 14 14 21 17 12 10 12 13 12 14 11 7 4 4 5 8 13 18 20 19 18
17 17 18 18 19 20 20 21 21 22 22 22 23 22 22 22 21 21 20 21 21 20 20 18 17 18 18 17 16 15 14 11 5 2 3 4 7 10 12 15 19 21 23 25 26 26 24 24 23 23 21 18 17 18 17 15 13 16 15 15 13 8 8 12 11 6 13 14 17 19 15 12 10 15 15 13 15 14 10 3 2 5 6 8 14 18 19 18
18 18 17 17 18 18 19 19 20 20 21 21 22 22 22 22 22 22 21 21 21 21 20 19 18 18 19 19 17 16 14 10 7 6 5 5 7 10 12 16 19 22 24 26 27 27 26 26 26 24 23 21 20 19 17 14 14 19 19 17 18 14 10 13 16 12 14 15 19 16 13 14 9 14 16 14 17 16 12 6 1 4 7 8 13 16 18 18
20 19 18 18 18 18 18 18 19 19 19 20 20 21 22 22 23 22 22 22 22 23 21 20 20 19 19 19 18 16 13 9 9 8 6 7 9 11 14 17 20 22 25 25 26 26 26 27 27 24 25 23 20 20 18 13 17 22 24 22 22 23 17 15 18 16 14 18 21 13 10 15 10 9 14 17 20 17 13 11 6 5 7 9 13 16 17 19
22 21 19 19 18 18 18 18 18 18 19 19 19 20 20 21 22 22 23 22 22 23 22 21 21 20 20 20 20 15 8 5 6 6 6 7 9 11 13 16 20 22 24 25 25 25 27 27 26 24 25 22 20 20 16 15 20 20 22 20 19 21 19 18 22 19 16 23 22 13 11 17 16 11 13 17 18 17 15 13 9 7 7 9 14 16 16 19
22 22 21 21 20 19 18 18 18 18 18 18 19 19 20 20 21 22 22 22 23 24 24 22 22 22 21 21 21 12 3 3 6 7 7 8 9 11 12 15 19 22 24 25 26 26 27 25 22 22 22 22 22 20 16 19 22 18 19 21 20 19 19 20 26 22 20 28 20 14 16 18 21 18 17 17 15 16 16 13 11 8 6 9 14 16 16 18
22 22 22 22 21 21 20 19 18 18 18 18 18 18 19 20 20 21 21 21 23 24 25 23 24 24 22 23 22 11 6 7 9 12 12 11 10 9 10 13 18 22 24 25 26 26 25 22 20 22 23 23 23 20 20 22 22 22 23 25 24 19 17 17 28 27 25 31 21 14 18 19 22 22 19 17 15 16 15 13 10 8 7 9 14 16 17 19
23 22 22 22 22 22 21 20 19 18 18 17 18 18 19 20 20 20 19 20 21 24 25 24 25 25 25 25 15 4 7 10 11 15 16 12 9 10 10 10 14 20 24 26 26 25 23 22 24 27 26 25 24 21 22 23 24 26 25 26 24 21 17 12 22 29 30 31 23 18 20 21 23 21 18 17 19 18 17 15 10 8 7 11 15 17 18 19
23 23 22 22 22 22 22 22 20 19 18 17 17 18 19 19 21 20 19 18 21 24 23 24 25 25 27 20 7 9 10 12 13 17 18 12 9 11 11 8 9 16 22 25 25 24 23 23 26 29 26 25 26 23 22 21 22 24 24 24 24 23 19 14 16 23 33 31 25 24 22 23 24 20 17 18 22 20 18 17 12 8 8 11 15 17 18 20
23 23 22 22 22 22 23 23 22 20 19 18 18 18 19 19 21 20 19 19 21 23 22 24 24 26 26 10 11 13 15 17 18 17 16 12 9 10 11 9 7 14 21 24 24 23 23 23 25 28 27 25 25 24 25 23 20 21 22 22 21 22 17 21 15 15 31 32 27 28 24 25 25 21 18 20 24 22 19 18 14 10 9 10 14 17 19 19
23 23 23 22 22 22 23 24 23 21 20 19 19 19 19 20 21 20 20 20 20 21 21 23 23 26 24 7 11 16 19 19 16 13 15 13 10 9 11 12 9 12 20 24 24 24 23 24 26 29 29 26 24 23 25 25 22 20 20 21 20 17 14 23 19 14 23 29 30 30 24 25 25 21 19 22 25 23 19 18 17 13 10 10 13 17 18 18
23 23 23 23 23 22 23 24 24 22 21 21 20 19 19 22 21 20 20 20 21 21 21 23 22 24 21 8 11 18 19 17 11 11 18 18 13 9 9 11 9 9 18 24 25 25 25 25 27 29 29 28 26 25 23 24 26 24 21 23 20 15 14 19 20 16 18 25 34 31 24 25 25 22 22 24 24 23 21 19 18 15 11 11 13 16 18 18
24 23 23 24 24 23 24 24 24 23 21 22 22 20 21 24 22 20 21 20 21 21 21 23 22 24 20 11 12 13 11 12 12 13 18 20 15 11 11 12 11 9 14 22 26 28 28 25 24 27 30 31 29 26 23 25 29 27 24 24 21 18 19 19 18 15 15 22 35 34 26 24 25 25 26 26 25 24 23 20 19 17 14 11 13 16 18 18
26 24 23 23 23 24 24 24 25 23 22 23 24 23 22 24 24 22 22 22 22 21 22 22 22 23 17 11 13 11 10 11 13 14 17 19 16 14 17 16 14 13 14 19 25 29 30 27 24 26 29 32 32 29 28 29 32 30 25 25 23 22 23 23 21 15 16 24 33 36 28 23 27 30 29 26 25 25 23 21 19 17 16 12 13 17 18 17
27 26 24 22 22 23 24 25 25 24 23 23 24 25 25 25 24 24 25 25 24 22 22 21 22 22 16 11 10 11 16 16 16 17 17 18 16 18 22 19 16 17 17 20 24 28 30 30 28 30 32 33 34 34 32 30 31 30 26 25 25 25 25 22 20 16 17 27 35 36 30 27 31 33 31 28 25 25 23 21 20 18 18 15 13 15 18 18
28 27 26 23 22 22 24 25 24 24 24 23 24 25 26 27 27 28 29 27 25 25 24 23 23 23 18 13 9 11 18 17 17 17 15 14 14 20 26 23 20 21 22 23 23 25 28 32 35 38 37 33 32 32 32 30 30 29 27 28 28 29 27 21 20 17 17 29 35 34 31 29 32 33 31 28 25 26 26 24 22 20 20 19 15 13 16 18
28 27 27 25 23 22 23 24 24 24 25 25 25 25 26 28 28 31 32 28 24 26 26 24 25 26 19 12 13 16 16 17 18 17 16 14 13 19 27 27 28 29 27 23 20 21 26 34 40 41 37 32 29 27 28 29 31 31 30 30 31 32 31 26 24 20 17 28 33 32 30 28 29 30 29 28 28 29 30 28 25 22 22 22 18 13 13 16
27 27 27 26 24 22 23 24 24 24 25 25 26 25 26 27 27 29 33 30 23 22 25 24 25 26 19 12 15 20 21 21 20 17 18 18 18 19 24 29 33 33 29 25 24 25 29 36 39 37 35 33 29 26 25 27 30 32 33 33 34 36 33 31 31 24 20 28 33 32 31 29 29 29 30 30 30 31 31 30 27 23 23 24 22 15 12 14
26 27 26 25 24 22 23 24 24 24 25 26 25 24 25 25 25 27 31 33 26 21 23 23 25 25 21 15 14 25 30 27 23 21 20 22 23 21 21 27 32 32 30 30 32 33 34 35 34 33 32 32 31 29 27 26 28 32 35 36 39 40 34 32 31 23 21 29 37 37 34 32 30 31 33 31 30 32 31 29 27 24 24 23 21 17 14 15
27 27 27 25 24 22 21 23 23 24 25 25 24 24 24 22 25 28 29 34 33 25 19 20 25 26 21 15 15 26 31 28 27 27 25 25 25 23 23 24 29 33 32 32 34 36 36 31 26 27 30 30 31 31 30 30 31 33 35 38 43 44 38 35 31 23 22 24 32 37 32 31 35 35 36 36 34 33 31 29 27 26 26 24 21 20 18 17
28 28 27 26 24 22 20 22 22 23 25 24 23 23 22 21 24 28 28 31 35 29 21 21 25 24 20 19 20 24 28 30 30 30 29 27 26 26 25 23 27 32 32 31 32 35 37 31 23 22 26 29 30 31 32 32 33 34 34 37 43 44 39 37 33 26 22 19 23 31 23 21 36 40 37 40 40 37 33 31 31 29 28 26 25 25 23 20
28 28 28 27 26 22 18 20 21 22 23 23 23 21 20 21 22 25 26 26 32 30 21 18 19 19 21 24 23 23 27 28 27 31 32 28 27 26 26 25 28 30 28 27 30 34 35 32 28 24 23 26 30 32 31 31 33 37 36 35 38 42 40 38 36 28 18 15 21 31 24 15 32 43 37 38 41 40 37 34 34 33 30 30 29 28 26 25
27 27 27 26 27 25 18 17 20 22 22 21 23 21 19 20 20 21 20 16 20 21 14 11 10 12 16 21 24 27 26 19 21 34 37 31 30 29 28 29 29 29 27 24 29 36 33 29 31 31 28 28 33 35 31 31 35 39 37 33 33 38 40 40 39 34 28 25 22 30 37 24 29 42 40 39 42 41 40 38 36 36 34 33 32 29 28 27
27 27 27 25 26 27 21 17 19 20 20 20 21 21 19 18 17 15 10 4 6 8 6 7 7 10 13 16 23 28 24 16 15 26 34 34 32 32 33 32 31 29 27 28 33 35 30 29 31 32 34 35 36 34 28 30 37 39 35 31 33 35 36 37 37 36 37 32 22 28 38 23 21 41 44 41 45 44 41 41 39 39 38 36 35 32 29 27
29 28 28 25 24 26 22 22 22 17 17 20 20 20 19 17 15 9 2 2 6 6 6 7 8 11 13 16 20 23 26 23 13 11 26 37 34 34 36 33 30 29 28 31 35 32 27 28 27 28 34 38 37 33 28 31 34 32 30 30 32 32 33 34 33 37 37 26 21 27 31 17 11 35 48 46 48 47 42 41 40 39 38 37 36 34 30 28
30 29 30 27 24 23 20 22 26 19 16 19 19 19 18 16 14 9 5 7 9 5 6 9 11 12 13 16 18 21 26 28 18 9 24 38 34 34 36 31 27 29 30 31 33 33 29 26 24 27 31 34 35 33 31 32 27 23 26 30 31 32 35 35 34 37 28 15 23 32 31 23 11 23 48 50 45 44 44 42 41 40 40 39 38 35 32 30
32 30 30 30 27 24 18 18 24 22 17 17 18 18 17 16 16 10 6 12 14 8 7 8 11 15 15 15 16 19 24 27 23 16 25 38 37 37 37 32 30 31 31 33 34 34 32 28 28 30 30 28 30 32 32 32 30 26 27 29 29 29 32 32 32 29 14 7 25 34 33 31 20 22 41 46 41 42 42 41 38 38 41 41 41 38 35 32
34 32 29 30 29 26 21 18 20 22 19 17 16 17 16 14 18 19 12 9 9 8 11 10 9 13 16 18 20 19 20 25 26 22 26 36 41 44 42 39 39 34 32 38 38 34 35 36 32 30 30 30 29 31 33 33 34 34 34 33 25 17 16 18 16 13 8 10 25 31 28 30 33 36 38 39 42 43 39 36 33 31 35 40 42 41 37 35
36 34 30 29 29 27 23 20 19 20 19 17 15 17 19 12 13 23 24 17 7 5 12 12 13 14 12 19 23 22 21 22 25 27 24 28 39 47 46 43 43 37 32 36 37 32 31 34 35 33 33 34 33 34 36 36 37 39 42 40 26 10 5 8 7 4 6 12 23 29 24 20 30 41 39 36 40 41 40 37 31 29 32 35 38 39 37 36
36 34 31 28 29 28 25 21 20 20 18 17 17 18 22 17 10 12 17 23 20 13 12 17 18 18 15 15 19 23 26 23 23 30 27 26 36 46 48 46 44 39 33 29 31 33 26 25 34 39 38 37 37 37 35 34 37 39 40 40 34 25 14 7 4 3 4 7 15 24 18 10 16 28 31 31 35 39 41 37 31 31 33 32 34 37 37 37
36 34 31 28 28 30 26 22 22 21 17 18 19 22 28 26 16 8 6 11 17 22 30 33 28 25 23 19 16 20 27 26 23 29 33 31 35 41 45 48 48 44 37 28 27 33 31 30 35 36 37 39 39 37 34 31 33 37 39 40 41 42 30 12 6 9 7 3 9 18 15 11 16 20 21 23 29 36 36 34 33 34 35 34 35 38 36 35
37 34 28 25 27 28 25 22 22 21 19 19 22 30 36 31 21 13 10 9 10 17 29 31 25 23 24 22 19 16 22 29 28 28 35 37 38 39 40 42 45 46 44 37 30 28 28 34 38 32 32 37 39 38 36 32 30 32 41 46 42 41 38 22 10 13 12 5 9 18 17 17 20 21 21 22 25 28 30 34 37 36 37 38 38 38 34 33
38 33 26 24 26 26 25 23 21 21 21 22 27 35 37 34 28 21 17 16 14 14 19 21 17 13 13 14 15 11 10 23 32 33 35 36 36 40 42 40 41 43 46 43 35 29 25 28 35 34 33 36 38 38 37 36 32 31 40 46 38 31 35 31 14 8 11 5 6 16 20 19 18 17 20 23 25 27 29 35 37 36 38 39 39 37 32 32
39 33 25 24 25 23 24 24 22 21 21 25 32 35 33 34 34 29 24 20 20 19 21 22 19 15 12 12 14 11 5 11 22 29 34 35 34 37 40 42 41 40 41 42 39 34 28 25 28 31 31 30 33 35 38 38 36 34 35 37 32 24 26 30 18 7 8 5 3 12 19 21 23 22 22 24 27 30 32 34 35 37 39 38 36 35 33 33
37 32 22 21 22 22 24 24 22 23 24 29 34 34 32 33 32 30 29 28 28 28 24 19 16 17 17 17 21 21 16 15 14 15 21 28 33 36 37 38 42 41 38 41 44 40 32 26 25 27 27 26 31 37 41 42 38 36 35 33 34 31 27 30 25 14 9 5 4 8 10 17 28 28 24 24 25 28 32 34 34 33 35 36 36 34 32 35
33 29 18 15 22 24 24 24 23 23 27 31 32 29 28 29 28 27 27 29 31 31 26 20 18 22 25 24 25 26 25 24 22 19 19 18 25 33 35 35 38 40 37 38 44 45 39 32 28 28 27 28 35 40 44 47 43 41 44 39 36 34 28 27 31 29 18 5 3 5 5 16 31 31 26 25 25 26 30 33 33 30 30 34 39 35 31 33
29 26 15 10 21 25 23 22 23 24 26 27 27 27 26 24 24 25 23 23 27 31 29 26 25 27 30 31 31 29 29 29 26 26 25 20 18 21 27 32 36 38 37 37 43 46 45 40 34 32 34 35 38 38 40 46 45 44 47 46 42 36 26 17 17 27 28 16 8 6 5 13 26 29 27 28 29 28 28 31 34 32 31 34 39 38 31 30
26 25 13 11 23 25 23 24 25 25 26 25 23 24 23 20 19 18 17 17 20 24 27 28 27 26 26 30 33 31 31 34 30 27 28 25 20 15 14 22 30 36 39 42 44 44 43 44 40 37 40 39 35 32 33 40 45 45 45 45 45 41 33 22 10 13 23 25 22 14 10 19 29 29 26 27 27 27 26 27 30 31 31 32 38 40 33 28
26 23 9 10 21 22 21 24 26 27 28 28 26 25 24 21 19 17 16 17 19 20 22 25 24 23 22 25 28 26 27 33 34 29 29 29 27 22 17 20 23 29 36 42 45 45 42 41 40 38 39 43 41 37 32 33 41 48 48 46 46 45 44 37 25 18 18 21 23 15 10 27 38 32 30 30 26 26 24 19 19 29 34 33 37 41 36 29
26 22 6 7 13 13 11 12 14 20 25 25 25 25 24 23 20 18 18 21 22 21 22 22 20 22 24 24 26 24 22 23 24 23 25 27 29 29 25 27 24 21 22 24 28 38 45 44 37 27 22 27 34 35 33 34 39 47 51 50 49 49 49 44 36 29 21 20 24 16 9 25 37 34 34 36 33 33 29 16 12 25 37 38 39 41 39 33
25 22 10 7 11 10 5 3 5 9 15 17 19 21 22 23 20 18 18 20 20 18 19 19 17 20 24 24 26 25 21 21 21 20 24 29 32 32 29 29 29 24 20 17 13 21 40 51 45 29 15 14 17 20 26 36 39 42 46 49 51 51 49 46 38 28 23 24 27 23 15 23 34 33 31 33 36 41 36 24 20 23 29 35 41 42 41 36
23 22 17 13 11 6 6 6 4 6 8 12 17 18 20 23 23 22 21 21 20 18 19 19 17 20 24 25 27 27 25 27 26 23 27 33 35 35 33 29 29 26 22 19 14 13 22 38 51 50 39 33 33 30 29 31 34 37 39 42 50 53 50 48 42 34 31 28 30 33 24 19 26 30 27 27 30 35 36 32 31 31 29 33 44 48 41 35
21 19 19 19 12 5 5 7 7 9 9 13 15 15 16 18 20 23 26 23 20 20 23 23 20 22 25 26 27 27 28 30 30 27 30 36 39 42 40 33 30 30 25 19 16 15 16 23 37 53 55 49 47 45 39 32 29 33 38 40 44 50 52 50 45 42 36 26 28 39 35 26 24 23 24 28 26 26 29 30 32 34 31 29 36 46 41 33
19 18 17 18 16 14 12 10 11 15 15 15 16 16 15 16 16 18 22 23 21 17 17 18 19 20 23 26 27 28 31 32 33 33 33 35 40 45 47 42 35 33 31 26 20 17 20 24 26 36 51 56 51 46 45 42 34 29 35 42 43 46 52 53 49 47 41 32 31 38 39 38 34 25 23 26 26 23 22 24 28 29 25 21 25 36 39 37
19 19 16 15 17 19 20 17 17 18 17 17 16 15 15 15 14 14 16 20 23 19 12 13 15 15 19 24 26 28 29 30 33 34 32 33 35 38 42 44 40 33 28 26 20 11 16 23 22 23 39 55 55 48 46 46 41 32 33 40 42 44 49 52 51 46 42 40 38 36 36 40 39 34 30 26 26 25 21 19 20 19 17 22 29 32 37 39
18 17 17 17 18 19 18 17 17 18 17 16 16 14 12 13 14 14 14 16 19 20 16 13 13 13 17 22 25 28 28 29 34 37 35 35 34 31 34 37 38 32 23 18 13 6 10 16 15 16 25 44 56 55 49 47 44 37 34 36 39 42 44 47 48 47 43 41 37 34 35 38 37 36 36 32 31 33 31 26 21 15 13 22 32 34 37 39
16 16 16 19 19 18 17 16 17 19 18 15 14 14 12 12 13 13 15 15 16 18 19 17 16 16 18 21 25 30 30 28 33 37 38 38 37 33 33 35 34 31 26 19 12 7 9 13 10 9 14 28 51 55 51 51 47 39 37 37 36 40 44 45 46 46 43 39 36 37 38 38 35 35 36 37 36 35 35 34 28 23 20 19 23 27 28 30
15 15 15 17 20 19 17 17 17 18 18 15 14 14 15 14 13 12 14 16 15 14 17 19 18 18 19 22 24 26 26 28 32 36 38 41 41 38 37 37 32 29 27 23 18 12 11 16 16 14 16 16 36 50 54 49 36 34 43 44 36 35 39 40 42 45 43 38 36 38 39 38 36 36 37 37 34 32 31 30 26 26 27 21 18 20 20 21
Wind_Direction
282 281 281 281 281 281 281 282 283 284 286 287 288 289 290 292 294 296 297 298 299 300 301 302 300 298 293 291 291 287 281 271 263 254 237 218 232 231 226 220 214 215 217 219 222 226 231 233 235 230 231 234 226 224 205 195 169 150 202 228 213 174 103 106 119 100 138 154 156 160 160 162 167 176 197 202 213 225 182 171 163 155 147 178 195 176 162 161
283 281 280 279 278 278 278 279 279 280 281 283 284 285 286 287 289 290 292 293 294 295 296 300 300 299 295 294 295 292 289 280 267 256 241 227 236 234 227 221 213 212 214 218 221 223 229 231 233 231 230 228 215 213 186 178 181 164 197 232 220 177 146 136 158 138 155 157 154 171 182 198 198 192 200 204 206 208 199 190 192 184 164 179 191 178 169 166
289 285 282 280 279 277 277 277 276 277 277 278 279 281 281 282 284 286 288 289 290 291 292 295 297 297 295 296 298 297 295 288 276 263 252 237 236 233 224 220 213 210 212 215 215 217 219 210 217 224 226 223 210 208 191 177 198 204 233 243 225 181 202 195 188 163 168 166 167 188 200 201 210 215 205 207 213 220 226 219 209 205 188 184 187 182 176 170
295 292 288 286 284 280 279 277 276 275 274 275 275 276 277 278 279 280 283 284 286 287 289 291 292 293 293 297 299 300 300 296 287 270 260 242 233 222 210 214 211 206 208 208 207 207 201 192 202 211 218 218 208 209 203 192 205 221 231 237 186 193 261 239 217 189 149 153 174 194 196 198 220 219 213 219 210 217 247 327 18 197 199 190 185 184 181 174
298 295 293 291 289 286 283 280 279 277 275 273 272 272 273 274 275 276 278 280 282 283 284 288 288 289 290 293 296 300 302 303 307 276 262 244 222 202 194 204 204 201 201 202 203 203 198 197 200 202 212 211 205 213 204 191 211 232 234 246 263 261 273 249 235 194 154 155 173 191 196 201 215 207 223 246 227 241 283 339 40 165 194 199 193 187 183 178
303 299 296 293 291 289 287 284 282 279 277 275 272 271 270 270 271 272 274 275 277 278 280 283 283 285 287 289 293 296 297 304 315 216 223 234 206 184 187 196 197 196 197 199 200 200 198 198 201 204 213 210 206 214 201 190 224 247 248 254 255 258 272 242 240 220 175 175 177 190 205 205 208 204 227 261 244 264 284 289 64 161 187 207 201 191 184 182
308 305 302 297 294 291 289 286 284 282 279 277 274 272 270 269 268 269 270 272 274 274 275 277 279 281 282 285 287 289 295 302 290 247 222 224 204 185 190 194 196 196 197 200 198 199 199 200 208 211 217 215 211 212 196 196 234 250 253 253 250 255 264 246 243 222 188 186 180 184 205 205 211 209 221 243 234 250 254 225 205 175 193 206 200 195 187 182
307 307 307 304 300 296 293 290 288 285 282 279 276 273 271 269 268 267 266 268 270 271 272 273 274 275 278 282 282 287 300 296 270 258 235 221 209 193 196 196 199 199 197 200 199 200 200 203 211 213 218 217 213 206 190 215 246 246 252 254 255 258 256 244 239 227 194 184 185 190 203 197 204 215 216 223 224 236 233 208 211 213 211 211 200 197 190 183
306 306 306 305 304 301 299 295 292 289 286 283 279 276 273 270 268 266 265 265 267 269 269 270 271 271 272 275 278 284 306 288 243 248 241 227 223 210 206 202 202 200 196 198 197 199 201 206 212 213 220 218 215 207 193 235 245 236 250 259 266 269 266 243 227 232 211 187 191 198 194 190 198 209 207 216 223 221 218 212 217 236 231 211 200 198 194 187
306 305 304 304 304 303 303 300 297 294 291 287 284 281 276 272 268 265 264 263 264 266 267 268 268 268 267 269 272 266 261 249 209 216 224 224 229 222 216 211 207 200 196 197 197 200 202 206 209 210 217 216 217 215 207 235 242 239 257 267 269 269 281 259 223 231 215 192 202 204 183 186 199 205 198 205 222 214 212 218 221 239 247 212 200 197 196 192
304 303 303 302 302 302 302 301 300 299 296 292 288 284 280 276 272 268 264 262 262 263 264 265 266 267 266 264 266 256 229 230 214 219 229 226 220 207 206 212 213 205 198 198 198 201 202 200 200 200 206 211 215 220 221 234 247 253 261 270 267 257 283 266 222 225 208 193 212 209 179 185 198 207 209 204 210 213 214 221 227 249 252 217 205 200 196 195
302 301 301 300 300 300 300 299 299 299 299 297 292 287 283 280 277 272 267 264 261 261 262 263 264 265 264 263 260 217 203 211 215 232 238 235 211 186 187 199 214 212 203 201 200 199 198 193 194 198 204 210 212 220 229 236 248 255 261 271 267 258 276 263 224 223 211 202 206 188 174 188 201 210 221 210 196 204 218 226 238 257 250 221 208 203 198 197
302 300 299 298 299 298 298 297 297 298 298 298 296 291 287 285 281 277 273 268 262 262 262 261 263 263 265 264 205 173 214 218 224 238 241 236 206 182 177 179 210 214 206 203 201 199 196 190 195 201 205 210 212 219 228 232 244 252 259 266 264 269 268 237 227 223 216 214 198 186 182 186 202 212 218 210 198 203 217 226 235 244 246 227 209 204 201 198
300 299 297 296 296 296 296 295 295 296 297 297 295 292 292 287 283 282 278 272 266 266 266 264 264 261 264 252 163 191 224 225 227 238 246 237 209 192 180 174 195 210 208 203 198 198 196 190 196 204 206 209 213 218 227 232 239 248 254 257 258 276 258 212 225 231 217 216 200 200 197 182 196 212 215 213 209 213 220 226 235 235 244 236 211 203 203 201
298 297 297 296 295 294 293 293 293 294 296 295 293 293 292 287 284 285 281 277 273 271 269 267 266 266 267 231 178 213 224 229 236 243 255 252 232 217 192 177 179 201 209 203 194 195 195 191 199 208 207 208 214 220 229 233 235 241 254 255 248 266 248 207 220 243 222 209 198 206 199 182 196 209 213 214 214 222 225 230 236 233 245 243 213 200 202 201
295 294 295 295 295 294 293 292 291 291 294 294 292 292 288 283 283 285 283 282 278 274 271 269 268 270 272 245 212 231 232 237 243 229 239 250 247 237 210 187 184 206 210 202 193 190 191 194 203 211 210 208 215 222 229 235 235 233 243 252 243 242 241 222 224 240 234 203 194 208 200 181 194 206 211 212 213 221 224 230 235 234 243 244 216 199 199 197
293 291 292 293 293 293 292 291 290 290 293 292 290 289 285 283 283 284 282 279 276 274 272 271 271 271 274 264 238 234 234 236 228 215 223 238 243 237 231 211 202 222 214 200 193 187 186 195 207 212 211 211 212 218 229 234 231 226 230 240 238 232 237 244 233 214 229 210 192 204 205 186 194 204 205 209 214 220 224 232 235 234 243 245 219 201 198 196
293 290 289 289 291 291 291 290 290 290 291 290 287 285 283 283 284 282 278 275 273 272 271 272 272 271 272 267 250 224 208 213 208 203 208 223 229 223 227 217 206 227 224 202 197 192 189 195 207 212 213 213 211 215 226 224 220 220 222 227 230 233 238 249 243 219 237 230 199 197 203 192 195 199 201 208 214 220 228 237 238 238 246 246 222 206 203 199
293 291 288 287 288 289 289 288 289 290 290 289 287 285 283 281 282 279 275 272 270 268 268 269 267 266 263 265 267 226 210 208 200 197 199 213 217 209 214 211 207 228 225 204 200 198 196 198 205 211 212 213 212 215 222 219 216 217 217 224 231 238 241 240 241 241 240 220 197 194 199 190 191 195 201 207 211 221 229 234 237 239 243 244 230 212 208 206
293 292 289 287 286 287 288 287 289 289 289 287 285 284 284 284 283 278 273 270 272 271 265 267 271 270 264 259 251 218 213 213 204 192 187 205 211 201 205 203 202 220 219 204 201 199 200 205 208 210 208 208 213 216 221 220 218 220 221 228 234 241 243 227 227 246 228 202 192 196 200 190 191 196 201 205 209 219 223 226 230 234 238 240 238 221 211 210
293 292 291 289 287 287 286 286 288 289 289 288 285 285 286 288 286 281 278 272 268 270 268 268 271 270 266 250 221 209 209 212 206 184 170 189 206 199 200 199 199 210 212 204 207 205 207 214 212 210 208 206 211 216 223 224 221 225 229 233 237 241 239 230 239 259 241 210 198 197 200 195 196 199 201 205 210 217 222 224 227 232 236 238 241 236 215 209
294 292 290 289 289 288 286 286 287 288 288 288 288 291 292 294 294 292 290 280 260 260 267 265 266 268 269 254 213 203 211 214 208 189 174 184 206 210 203 203 204 206 204 203 214 215 218 224 217 211 211 208 209 211 218 226 225 227 231 237 242 240 238 244 251 260 257 232 210 200 204 205 205 203 201 207 214 219 223 226 230 234 235 235 237 239 223 212
298 294 290 288 288 288 286 285 285 287 286 286 289 293 295 297 297 293 291 287 273 260 265 262 263 265 262 256 213 203 217 219 205 197 191 191 206 219 213 209 207 203 200 203 213 216 220 227 220 213 214 212 213 211 211 222 227 227 228 234 240 237 241 254 251 251 264 244 219 209 209 206 202 200 203 211 216 218 220 227 235 238 238 240 239 238 234 225
303 299 294 290 287 286 286 282 282 285 283 284 288 290 293 295 294 289 289 291 284 270 267 265 262 258 255 257 224 211 222 225 213 206 204 200 202 215 220 212 204 200 200 205 213 219 222 226 222 216 218 216 216 214 211 216 223 227 227 229 235 236 241 250 249 255 269 249 219 207 203 200 196 194 200 207 211 214 219 224 228 232 237 244 243 237 239 237
306 302 298 295 289 286 287 283 280 280 279 281 283 285 290 291 292 293 296 299 290 279 276 270 261 256 249 240 229 220 221 227 224 213 210 208 202 211 217 209 206 207 205 207 216 225 228 227 221 218 221 219 219 218 213 215 224 231 230 227 231 236 242 247 250 260 269 261 227 203 195 198 196 196 198 201 204 209 216 220 222 227 230 234 237 235 237 239
308 305 302 299 294 288 287 285 280 276 276 277 277 279 285 287 289 293 300 305 295 289 288 276 258 249 239 230 229 218 214 229 232 215 213 214 204 209 214 209 212 217 213 212 219 229 233 228 220 218 222 221 219 219 213 214 228 234 230 226 230 236 243 248 249 255 258 260 238 209 204 203 194 196 200 200 203 207 212 217 220 225 228 228 232 233 235 236
311 309 305 303 299 293 288 286 280 274 272 272 273 275 277 280 284 290 300 309 300 294 288 269 246 234 229 223 223 215 212 231 226 213 216 214 204 205 213 214 216 218 216 213 221 229 231 227 220 218 223 226 220 217 213 212 226 234 228 226 232 237 243 248 250 255 255 257 254 218 211 209 195 198 202 202 204 204 208 215 219 225 229 229 230 233 237 237
313 311 308 308 305 300 296 289 279 272 272 270 268 269 269 269 275 285 297 311 298 296 272 242 217 219 215 207 216 218 220 227 217 217 219 212 205 205 211 215 217 220 214 209 220 229 226 222 222 217 221 228 224 221 217 211 221 229 227 226 232 235 242 249 253 258 258 255 257 226 214 214 202 201 202 201 201 202 207 215 220 225 229 230 228 231 237 239
312 311 310 311 307 305 305 295 283 275 270 266 261 261 260 260 262 260 243 231 259 264 253 239 218 219 215 207 213 217 223 225 222 226 213 206 206 208 213 215 216 223 220 215 225 233 228 225 226 220 222 227 227 227 225 217 220 228 228 229 233 236 243 251 255 258 257 248 242 233 220 223 222 201 197 196 199 204 213 221 225 227 230 230 227 229 235 237
308 309 311 311 308 308 310 298 290 284 271 264 260 257 254 252 243 218 196 233 247 243 235 234 229 230 223 216 216 214 220 223 221 203 199 205 207 206 215 221 221 226 227 226 233 237 233 229 229 228 228 226 225 229 229 224 227 232 229 229 237 242 245 251 256 255 256 241 238 242 227 222 243 207 199 199 207 214 219 224 226 227 227 228 229 231 234 235
303 305 310 312 309 308 307 296 289 287 278 264 259 253 248 243 225 204 217 240 246 247 222 223 235 239 241 239 234 223 218 217 215 199 194 203 203 200 209 218 219 224 227 228 234 239 235 229 226 228 230 230 227 230 231 229 231 229 224 225 234 242 245 252 256 250 245 232 242 248 235 222 225 220 210 210 221 225 221 223 225 225 225 227 231 233 234 235
298 301 306 310 310 309 305 296 286 283 277 263 256 247 235 227 220 218 215 225 261 256 215 211 220 231 249 251 245 241 229 218 211 201 196 200 201 201 206 209 210 212 218 222 226 233 234 230 226 223 226 228 227 228 229 229 229 225 221 221 222 229 239 246 251 242 227 239 246 248 239 223 221 228 227 226 228 225 222 227 231 232 231 228 230 232 233 233
295 296 301 306 310 307 299 293 282 274 271 258 246 235 221 212 226 229 221 213 219 173 181 199 197 198 234 243 237 238 237 229 212 201 204 209 207 207 210 212 211 209 214 218 221 227 235 236 231 226 225 222 221 225 223 222 223 221 218 216 212 203 207 226 237 248 238 244 248 245 236 220 219 226 231 235 235 230 228 232 237 244 241 233 231 232 233 231
293 294 297 302 304 299 291 287 277 268 267 255 239 224 215 215 230 237 233 230 227 218 231 250 238 221 227 235 233 231 230 232 218 205 208 217 213 211 211 213 214 215 218 220 221 222 227 235 229 225 223 217 217 223 223 221 222 220 219 218 218 217 212 212 217 215 227 240 245 239 227 205 213 223 230 238 238 235 233 233 239 249 245 236 233 230 231 230
295 294 297 301 297 292 289 284 276 267 260 250 236 221 217 221 223 220 231 236 234 240 249 258 265 258 245 230 227 232 231 232 228 215 212 217 218 216 215 214 214 216 219 221 223 221 224 233 229 221 220 218 218 222 224 225 224 221 219 219 222 223 223 227 243 236 240 255 235 230 225 226 238 244 247 244 235 231 233 233 237 244 240 234 231 229 231 232
296 294 297 299 289 285 285 279 275 267 255 245 233 226 226 226 223 218 210 203 226 252 254 257 266 267 258 242 230 239 240 235 234 226 218 220 223 223 222 221 218 216 216 217 220 218 220 234 235 225 222 223 219 219 222 222 222 218 214 216 221 225 226 231 248 250 249 261 241 234 236 240 245 249 248 244 237 235 237 234 233 239 236 229 228 228 231 234
299 296 295 292 282 279 280 274 270 264 252 241 234 233 235 233 227 223 217 212 227 263 281 280 274 263 268 256 230 224 240 236 233 229 226 225 227 229 226 224 224 222 219 219 222 223 223 237 242 234 229 225 217 219 226 225 226 219 210 213 219 223 226 229 233 238 236 243 243 238 240 241 238 239 239 239 240 242 242 234 232 237 233 226 226 227 227 230
303 300 298 291 282 276 273 268 261 257 249 240 239 239 240 239 236 233 228 227 236 258 282 290 285 277 277 275 251 233 246 255 234 227 231 231 229 232 229 223 224 226 226 224 223 227 231 241 246 239 236 229 218 221 228 227 229 227 218 215 215 211 214 218 219 213 217 226 246 239 241 241 237 236 237 238 239 241 240 234 232 234 229 224 224 223 222 226
307 306 305 292 278 267 261 256 250 249 243 238 241 243 244 245 245 243 239 238 242 256 276 284 281 280 273 274 275 266 270 285 265 243 248 241 233 235 233 226 223 224 228 228 224 226 229 236 244 239 235 231 222 223 225 224 224 225 226 222 217 218 214 210 214 214 204 207 227 231 235 239 240 239 237 237 237 238 237 234 232 232 230 226 223 220 219 223
311 309 310 290 271 258 250 245 240 239 238 239 243 247 250 251 251 248 245 244 243 251 265 269 266 274 276 275 278 276 280 286 279 273 275 255 236 237 235 230 227 223 224 228 229 228 226 231 242 237 230 231 227 223 220 220 219 216 219 219 215 218 217 214 220 220 213 198 176 202 230 239 240 241 238 234 237 245 245 241 240 237 233 229 224 221 219 221
313 311 316 284 262 252 240 232 226 224 230 240 248 251 257 263 264 261 255 250 246 244 252 265 272 274 279 281 277 277 282 285 281 277 273 256 237 238 232 228 231 229 222 221 225 227 224 227 237 235 232 233 232 228 223 222 220 215 216 218 216 214 208 205 220 221 218 218 207 202 240 246 239 237 238 235 237 249 253 253 255 246 234 228 224 222 221 221
315 313 314 258 252 251 240 229 219 217 225 233 240 248 256 262 264 267 266 257 251 248 251 263 272 275 281 281 279 280 280 278 277 274 270 259 237 226 231 231 230 228 225 223 225 229 228 227 230 233 234 235 233 232 229 226 225 221 219 220 220 219 215 209 210 212 216 223 228 229 246 251 242 232 230 233 237 248 255 261 262 248 235 232 227 221 219 219
317 320 319 240 253 259 248 238 228 223 227 230 233 240 246 249 255 267 273 265 262 264 261 262 268 273 275 271 269 275 275 271 270 264 265 267 246 233 255 258 232 220 225 228 226 226 225 223 224 229 234 237 236 234 233 232 225 220 220 219 218 221 224 224 226 222 222 225 223 221 242 249 245 237 230 232 237 248 260 270 260 240 234 235 229 220 216 216
319 324 318 226 269 278 255 251 249 237 235 237 240 243 241 242 253 264 267 263 262 266 263 262 268 269 267 262 258 265 271 270 269 257 254 259 247 238 250 253 238 223 222 223 222 220 218 217 218 221 228 236 240 240 238 235 226 218 218 218 216 219 223 228 230 227 232 234 222 215 230 242 246 246 241 238 239 246 257 271 256 234 229 230 227 220 215 215
320 324 308 262 289 295 242 242 305 267 248 251 255 254 247 242 242 244 252 259 261 265 264 263 271 273 273 270 260 262 268 263 266 266 254 251 246 241 244 244 243 242 228 213 211 215 218 217 214 210 209 214 225 233 230 227 225 221 218 216 215 217 219 224 225 221 227 234 227 227 233 237 241 246 248 247 243 244 249 252 252 248 240 234 230 223 217 217
319 321 318 309 304 285 216 213 275 282 267 274 271 263 257 253 246 239 245 258 263 263 262 262 275 283 281 278 270 267 266 256 261 277 273 264 256 250 249 249 252 253 237 220 212 210 223 225 218 215 217 218 221 227 229 227 223 222 220 215 214 215 217 221 221 220 225 228 231 236 237 240 240 236 242 251 248 246 248 248 253 262 263 249 233 223 219 217
313 315 322 324 319 295 227 224 260 284 301 311 299 283 275 273 263 248 245 254 263 265 263 263 276 286 281 281 281 279 276 264 260 271 277 271 264 257 254 256 263 261 249 239 233 231 249 249 229 222 222 224 227 227 230 234 228 222 221 218 214 214 216 218 219 223 226 223 231 237 237 242 242 231 238 248 246 249 253 252 255 260 264 258 235 223 221 221
308 309 317 317 307 303 299 288 290 295 303 315 311 299 295 292 287 269 252 248 252 265 277 277 283 290 284 282 286 287 286 280 271 270 273 272 268 264 258 257 262 262 257 256 254 256 264 260 246 233 225 225 229 228 229 234 235 227 222 219 216 214 214 216 219 224 227 226 233 238 237 241 241 237 244 242 230 237 256 259 259 260 259 250 227 217 221 227
307 305 307 304 297 301 305 306 309 308 305 310 309 302 299 294 291 286 271 258 252 255 275 289 290 297 290 282 285 291 291 291 285 278 277 279 278 275 271 265 260 258 260 260 256 272 280 257 253 254 233 223 225 228 229 232 231 227 223 220 217 215 215 218 221 223 228 233 239 242 242 244 244 244 250 242 225 235 260 268 261 267 261 232 216 215 223 227
305 302 302 301 296 298 303 307 313 310 301 303 310 308 299 291 286 282 278 275 265 257 262 278 280 288 295 289 286 291 295 296 291 284 283 286 284 282 283 278 267 257 256 265 259 271 299 269 255 270 247 224 220 224 227 230 229 226 224 223 221 217 216 218 220 222 225 231 238 241 243 245 245 246 250 248 243 246 257 263 259 262 257 226 216 222 228 227
300 297 298 299 296 298 305 307 308 306 303 308 317 311 292 281 285 286 279 275 272 266 268 279 280 278 289 291 285 287 293 296 290 283 281 281 281 284 284 280 279 275 270 281 287 270 299 300 281 301 289 235 219 218 222 227 228 226 223 221 219 217 216 216 217 219 221 225 231 236 240 243 242 243 246 246 248 251 254 260 259 253 255 240 220 220 222 222
295 291 292 293 293 296 303 302 300 303 307 314 317 307 295 289 290 295 289 278 268 261 262 270 278 280 283 286 286 288 292 293 288 283 280 275 273 278 281 278 281 286 285 295 301 281 290 310 305 319 329 269 224 215 217 220 224 229 227 221 216 215 217 220 219 217 217 220 225 231 238 242 239 239 241 241 245 251 255 262 263 256 257 254 229 218 217 218
Height
3164 3164 3163 3163 3162 3162 3161 3161 3161 3160 3160 3160 3159 3159 3158 3157 3157 3156 3155 3155 3154 3153 3152 3152 3151 3151 3150 3149 3150 3150 3150 3150 3150 3149 3150 3152 3151 3151 3153 3155 3157 3159 3162 3164 3166 3169 3171 3172 3174 3174 3175 3175 3176 3176 3176 3176 3176 3174 3174 3174 3173 3173 3174 3175 3175 3175 3176 3176 3176 3175 3174 3174 3174 3176 3177 3178 3178 3179 3179 3179 3180 3180 3180 3182 3183 3183 3183 3184
3162 3162 3161 3160 3160 3159 3159 3159 3158 3158 3158 3157 3157 3157 3156 3156 3155 3154 3154 3153 3152 3152 3151 3151 3150 3150 3149 3148 3148 3148 3148 3148 3148 3148 3148 3149 3149 3149 3151 3152 3154 3157 3159 3162 3165 3168 3169 3171 3172 3173 3174 3174 3175 3175 3175 3175 3174 3173 3172 3172 3171 3171 3173 3175 3175 3176 3176 3177 3177 3175 3175 3174 3174 3175 3176 3177 3178 3178 3178 3178 3179 3179 3179 3181 3182 3183 3183 3184
3160 3159 3158 3158 3157 3157 3156 3156 3156 3156 3155 3155 3155 3155 3154 3154 3153 3153 3152 3151 3151 3150 3150 3149 3149 3148 3147 3147 3146 3146 3146 3146 3146 3146 3146 3146 3146 3147 3149 3150 3152 3155 3158 3160 3163 3166 3168 3170 3170 3171 3172 3173 3174 3174 3174 3174 3173 3172 3172 3171 3169 3170 3172 3174 3174 3174 3175 3176 3177 3176 3175 3175 3174 3174 3175 3177 3177 3177 3176 3176 3178 3178 3179 3180 3181 3182 3183 3184
3158 3157 3156 3156 3155 3155 3154 3153 3153 3153 3153 3153 3152 3152 3152 3152 3152 3151 3150 3150 3149 3148 3148 3148 3148 3147 3146 3145 3145 3145 3144 3144 3144 3144 3144 3144 3144 3145 3146 3148 3150 3153 3156 3158 3160 3163 3165 3166 3168 3169 3170 3171 3172 3173 3173 3172 3171 3171 3170 3169 3168 3170 3171 3172 3173 3173 3173 3174 3175 3175 3175 3174 3173 3173 3174 3175 3175 3175 3175 3176 3177 3177 3178 3179 3180 3182 3183 3184
3156 3155 3155 3154 3153 3152 3152 3151 3151 3150 3150 3150 3150 3150 3150 3149 3149 3149 3148 3148 3147 3146 3146 3146 3146 3145 3144 3144 3144 3144 3143 3143 3143 3143 3143 3143 3143 3143 3145 3147 3149 3152 3154 3155 3157 3159 3161 3163 3165 3167 3167 3168 3170 3170 3171 3171 3171 3170 3168 3167 3168 3169 3170 3172 3173 3172 3172 3173 3173 3174 3174 3174 3173 3172 3172 3173 3173 3173 3174 3176 3177 3177 3178 3179 3180 3181 3183 3184
3155 3154 3153 3152 3151 3150 3150 3149 3148 3148 3147 3147 3147 3147 3147 3147 3147 3146 3146 3145 3145 3144 3144 3144 3144 3143 3142 3142 3143 3142 3142 3142 3142 3142 3142 3142 3142 3142 3144 3146 3148 3150 3151 3153 3155 3157 3159 3161 3162 3163 3165 3167 3168 3168 3169 3170 3170 3168 3166 3166 3166 3168 3171 3171 3172 3171 3170 3171 3172 3173 3174 3174 3173 3172 3171 3171 3171 3172 3174 3176 3178 3178 3179 3180 3181 3181 3182 3184
3153 3152 3151 3150 3149 3148 3148 3147 3146 3146 3145 3144 3144 3144 3144 3144 3144 3144 3143 3143 3142 3142 3142 3142 3142 3141 3140 3140 3141 3141 3141 3141 3141 3141 3142 3142 3142 3143 3143 3145 3146 3148 3149 3151 3153 3154 3156 3158 3159 3162 3164 3165 3166 3166 3167 3168 3168 3165 3163 3163 3165 3167 3171 3171 3171 3171 3169 3169 3170 3172 3173 3173 3173 3171 3171 3171 3172 3173 3175 3177 3178 3178 3179 3180 3180 3182 3183 3184
3152 3151 3150 3149 3147 3147 3146 3145 3144 3143 3143 3142 3142 3141 3141 3141 3141 3141 3141 3140 3140 3139 3140 3140 3139 3139 3139 3138 3139 3139 3139 3139 3138 3139 3140 3141 3142 3143 3143 3144 3145 3146 3148 3149 3151 3153 3155 3156 3158 3161 3162 3163 3165 3165 3166 3166 3165 3164 3162 3163 3166 3168 3170 3170 3170 3170 3169 3168 3169 3170 3170 3172 3172 3172 3172 3171 3172 3173 3175 3177 3178 3178 3179 3179 3180 3181 3183 3184
3150 3149 3148 3147 3146 3145 3144 3143 3142 3141 3141 3140 3139 3139 3138 3138 3138 3138 3138 3138 3137 3137 3137 3137 3137 3137 3137 3136 3136 3138 3138 3137 3137 3137 3138 3139 3140 3141 3142 3143 3143 3144 3146 3148 3150 3151 3152 3154 3156 3159 3160 3162 3164 3163 3164 3164 3162 3162 3163 3165 3167 3168 3169 3169 3169 3168 3169 3168 3167 3168 3169 3171 3171 3172 3172 3171 3172 3173 3175 3176 3178 3178 3178 3179 3179 3181 3182 3184
3148 3147 3146 3145 3144 3143 3142 3141 3140 3140 3139 3138 3138 3137 3136 3135 3135 3135 3135 3135 3135 3134 3134 3135 3135 3134 3135 3134 3134 3136 3136 3136 3136 3136 3136 3137 3138 3139 3140 3141 3141 3142 3144 3145 3147 3148 3150 3153 3156 3159 3160 3161 3161 3161 3162 3161 3160 3161 3163 3165 3166 3166 3166 3167 3167 3167 3168 3167 3166 3166 3168 3169 3169 3170 3170 3171 3172 3173 3175 3176 3177 3178 3178 3178 3179 3180 3182 3183
3146 3145 3144 3143 3142 3141 3140 3140 3139 3138 3137 3136 3136 3135 3134 3133 3132 3132 3132 3132 3132 3131 3132 3132 3132 3132 3132 3131 3132 3133 3134 3134 3135 3135 3135 3135 3136 3136 3137 3138 3140 3140 3142 3143 3145 3147 3149 3153 3156 3158 3157 3158 3159 3160 3159 3159 3159 3160 3161 3162 3163 3164 3163 3163 3165 3166 3166 3166 3166 3166 3167 3167 3167 3169 3169 3170 3172 3173 3174 3175 3176 3177 3177 3178 3179 3180 3181 3182
3144 3143 3142 3141 3140 3139 3138 3137 3137 3136 3135 3135 3134 3133 3132 3131 3130 3129 3129 3130 3129 3128 3129 3129 3129 3129 3129 3129 3129 3131 3131 3132 3133 3133 3133 3134 3134 3134 3135 3136 3138 3139 3140 3142 3143 3146 3148 3152 3154 3154 3155 3156 3157 3158 3157 3158 3159 3159 3160 3160 3160 3160 3160 3160 3162 3164 3165 3164 3166 3166 3167 3167 3165 3167 3168 3169 3171 3172 3173 3174 3175 3176 3177 3178 3178 3179 3180 3181
3142 3141 3140 3139 3138 3137 3136 3135 3135 3134 3133 3133 3132 3131 3129 3129 3127 3127 3127 3127 3126 3125 3126 3126 3126 3126 3126 3126 3127 3129 3129 3130 3130 3129 3130 3132 3132 3132 3133 3134 3136 3138 3139 3141 3143 3145 3147 3150 3151 3152 3154 3155 3155 3156 3155 3156 3157 3156 3158 3158 3157 3157 3157 3158 3160 3162 3163 3163 3164 3164 3165 3165 3164 3166 3167 3168 3170 3170 3172 3173 3174 3176 3176 3177 3178 3178 3179 3180
3139 3138 3137 3137 3136 3135 3134 3133 3132 3132 3131 3130 3129 3128 3127 3126 3125 3124 3125 3124 3124 3123 3124 3124 3123 3123 3123 3124 3126 3127 3126 3126 3126 3125 3127 3129 3131 3131 3131 3132 3135 3137 3138 3140 3142 3144 3146 3148 3150 3151 3153 3152 3153 3155 3153 3154 3155 3155 3155 3155 3156 3155 3153 3155 3158 3160 3160 3161 3161 3160 3162 3163 3163 3164 3166 3167 3168 3168 3169 3171 3173 3174 3175 3176 3177 3177 3178 3179
3137 3135 3135 3134 3133 3132 3131 3130 3129 3129 3129 3128 3127 3126 3125 3123 3122 3122 3122 3122 3122 3121 3121 3121 3121 3120 3121 3123 3124 3124 3122 3122 3124 3125 3126 3126 3128 3129 3130 3131 3133 3136 3137 3139 3140 3142 3145 3147 3148 3148 3150 3151 3152 3153 3152 3152 3153 3153 3153 3152 3153 3153 3152 3153 3155 3157 3158 3160 3160 3159 3160 3161 3161 3163 3164 3166 3167 3167 3168 3169 3171 3173 3174 3175 3176 3176 3177 3178
3134 3133 3132 3131 3130 3130 3129 3127 3127 3127 3127 3126 3125 3124 3122 3120 3120 3120 3119 3119 3119 3119 3118 3118 3118 3118 3119 3121 3121 3120 3120 3122 3124 3125 3125 3124 3125 3127 3129 3130 3131 3134 3136 3137 3139 3140 3142 3144 3144 3145 3147 3149 3150 3150 3151 3151 3150 3151 3152 3150 3150 3151 3151 3152 3153 3155 3156 3157 3158 3158 3159 3159 3160 3162 3163 3165 3166 3167 3167 3168 3170 3172 3173 3174 3175 3175 3176 3177
3131 3130 3130 3129 3128 3127 3126 3125 3124 3124 3124 3123 3122 3122 3119 3117 3117 3117 3117 3116 3116 3116 3115 3115 3116 3116 3116 3118 3119 3119 3120 3121 3121 3122 3123 3122 3124 3126 3127 3128 3130 3133 3134 3136 3137 3138 3139 3140 3141 3142 3143 3145 3146 3149 3149 3147 3147 3148 3150 3149 3149 3149 3150 3150 3151 3153 3154 3154 3156 3158 3158 3157 3157 3159 3161 3162 3164 3165 3166 3167 3168 3170 3172 3173 3174 3175 3175 3176
3128 3128 3127 3126 3125 3124 3123 3122 3121 3121 3121 3120 3118 3118 3117 3115 3114 3114 3113 3112 3112 3112 3112 3112 3113 3113 3113 3114 3115 3117 3117 3117 3117 3119 3121 3121 3123 3125 3126 3127 3129 3131 3133 3134 3135 3136 3137 3138 3139 3140 3140 3140 3142 3144 3144 3143 3144 3147 3148 3148 3148 3147 3148 3149 3148 3151 3153 3151 3152 3155 3156 3156 3155 3156 3158 3160 3161 3163 3164 3165 3167 3168 3170 3172 3173 3173 3174 3175
3125 3124 3124 3124 3123 3122 3121 3120 3118 3118 3118 3117 3115 3114 3114 3113 3112 3111 3109 3108 3109 3109 3109 3109 3109 3110 3111 3112 3113 3114 3114 3114 3114 3115 3117 3120 3121 3123 3125 3126 3127 3130 3131 3131 3132 3133 3135 3136 3136 3134 3134 3136 3138 3140 3140 3142 3145 3147 3148 3148 3147 3146 3146 3148 3148 3150 3152 3150 3149 3151 3152 3153 3153 3154 3156 3157 3159 3161 3162 3164 3165 3166 3168 3170 3171 3172 3172 3173
3121 3121 3121 3121 3120 3119 3118 3117 3116 3115 3115 3114 3113 3111 3110 3110 3109 3107 3105 3105 3106 3106 3105 3105 3105 3106 3108 3111 3113 3112 3112 3112 3112 3113 3115 3118 3119 3121 3123 3124 3125 3127 3127 3128 3129 3131 3133 3132 3130 3128 3130 3134 3137 3139 3141 3144 3146 3146 3147 3147 3146 3145 3144 3146 3147 3149 3152 3149 3147 3148 3149 3149 3150 3151 3152 3155 3157 3159 3160 3161 3162 3164 3166 3168 3169 3170 3171 3172
3118 3117 3117 3117 3117 3117 3115 3114 3113 3113 3112 3111 3110 3109 3109 3107 3105 3102 3100 3102 3104 3103 3101 3102 3102 3101 3104 3109 3110 3110 3110 3110 3110 3110 3111 3115 3118 3118 3119 3120 3122 3122 3123 3126 3128 3130 3130 3126 3123 3126 3130 3134 3136 3139 3141 3143 3144 3145 3145 3145 3145 3144 3142 3142 3145 3148 3152 3151 3147 3147 3148 3148 3148 3149 3149 3152 3154 3156 3157 3158 3159 3161 3163 3165 3167 3169 3170 3171
3115 3114 3114 3114 3114 3114 3112 3111 3111 3110 3109 3108 3107 3107 3107 3105 3103 3100 3096 3095 3099 3100 3099 3099 3099 3097 3100 3105 3107 3107 3106 3106 3108 3108 3108 3111 3114 3115 3116 3117 3117 3118 3121 3124 3125 3126 3124 3120 3121 3127 3131 3134 3135 3138 3140 3141 3143 3143 3143 3144 3142 3140 3140 3141 3143 3146 3150 3150 3147 3147 3147 3147 3147 3148 3148 3148 3150 3152 3154 3155 3157 3159 3160 3162 3164 3166 3167 3169
3111 3110 3110 3110 3110 3111 3110 3108 3108 3107 3106 3106 3106 3106 3104 3103 3101 3099 3095 3091 3092 3096 3096 3096 3095 3094 3096 3100 3103 3102 3099 3101 3104 3105 3105 3106 3109 3112 3113 3114 3115 3117 3119 3119 3119 3120 3118 3116 3121 3127 3130 3132 3133 3135 3137 3139 3140 3140 3140 3141 3138 3136 3140 3140 3140 3144 3147 3146 3145 3144 3145 3146 3146 3148 3148 3147 3148 3150 3152 3153 3155 3156 3157 3159 3161 3163 3164 3166
3108 3107 3106 3106 3107 3107 3107 3106 3105 3104 3103 3103 3104 3103 3102 3101 3098 3095 3094 3090 3087 3089 3093 3093 3091 3091 3093 3096 3098 3096 3096 3099 3100 3102 3102 3102 3106 3109 3110 3112 3113 3114 3114 3115 3117 3116 3115 3117 3122 3126 3127 3129 3131 3132 3135 3135 3136 3136 3137 3138 3134 3133 3138 3138 3138 3142 3144 3143 3143 3143 3144 3145 3145 3146 3146 3147 3148 3149 3150 3151 3152 3153 3154 3156 3158 3160 3161 3163
3105 3104 3103 3103 3103 3104 3104 3103 3102 3102 3100 3101 3101 3100 3100 3099 3097 3093 3092 3089 3083 3083 3088 3088 3086 3087 3090 3091 3091 3092 3094 3095 3095 3098 3099 3099 3103 3105 3107 3110 3110 3110 3112 3114 3116 3115 3115 3118 3122 3124 3124 3126 3127 3128 3130 3131 3133 3133 3133 3134 3133 3132 3135 3137 3138 3141 3142 3142 3143 3143 3144 3144 3143 3143 3143 3145 3146 3147 3148 3148 3149 3150 3152 3154 3155 3156 3158 3160
3102 3101 3100 3099 3099 3101 3102 3100 3099 3099 3097 3098 3098 3098 3098 3097 3095 3093 3092 3089 3081 3079 3082 3082 3082 3083 3084 3086 3087 3089 3091 3089 3091 3096 3097 3097 3100 3102 3105 3106 3107 3108 3110 3114 3116 3113 3112 3116 3119 3120 3122 3123 3124 3124 3126 3129 3131 3129 3128 3132 3133 3132 3133 3134 3136 3140 3141 3140 3141 3141 3141 3141 3141 3141 3141 3142 3143 3144 3146 3146 3146 3147 3149 3150 3151 3153 3154 3156
3100 3098 3097 3097 3095 3096 3099 3098 3096 3095 3095 3096 3095 3095 3096 3094 3094 3094 3093 3091 3082 3077 3078 3078 3079 3079 3080 3082 3083 3085 3086 3085 3089 3092 3092 3094 3097 3100 3102 3103 3103 3105 3109 3113 3112 3106 3108 3113 3116 3117 3119 3119 3119 3120 3122 3126 3127 3123 3125 3131 3132 3131 3131 3131 3134 3137 3138 3139 3139 3139 3138 3137 3136 3136 3138 3139 3140 3142 3143 3143 3144 3144 3145 3146 3147 3149 3151 3153
3097 3095 3094 3095 3092 3091 3095 3095 3092 3092 3092 3092 3092 3093 3092 3092 3093 3093 3095 3093 3082 3076 3076 3076 3077 3077 3077 3079 3079 3081 3083 3083 3086 3086 3087 3092 3094 3096 3098 3099 3101 3102 3106 3109 3104 3101 3106 3110 3110 3113 3115 3114 3114 3117 3120 3123 3123 3120 3125 3130 3130 3131 3130 3130 3132 3133 3135 3137 3135 3136 3137 3134 3130 3131 3134 3136 3137 3139 3139 3140 3140 3140 3141 3142 3144 3145 3147 3150
3095 3093 3091 3093 3091 3089 3091 3089 3087 3089 3090 3089 3089 3089 3089 3091 3092 3092 3095 3091 3079 3074 3076 3075 3076 3076 3076 3077 3077 3079 3081 3082 3084 3084 3086 3089 3090 3093 3094 3096 3100 3102 3104 3105 3101 3101 3105 3106 3108 3111 3111 3110 3112 3116 3119 3120 3120 3120 3125 3128 3129 3129 3129 3129 3130 3130 3132 3131 3128 3131 3134 3132 3128 3127 3131 3133 3134 3135 3135 3136 3136 3136 3137 3138 3140 3142 3144 3146
3092 3090 3089 3089 3089 3089 3088 3085 3082 3085 3087 3085 3086 3086 3087 3088 3089 3091 3092 3084 3074 3073 3075 3074 3075 3075 3075 3076 3077 3078 3078 3080 3083 3083 3084 3085 3088 3091 3092 3096 3100 3101 3102 3103 3100 3100 3103 3106 3108 3108 3108 3109 3112 3114 3116 3118 3119 3121 3124 3126 3127 3127 3127 3127 3127 3127 3128 3124 3122 3125 3129 3130 3127 3124 3124 3125 3127 3129 3130 3132 3133 3134 3134 3135 3136 3138 3140 3143
3088 3088 3086 3085 3085 3086 3087 3084 3079 3080 3083 3082 3083 3084 3085 3086 3087 3087 3082 3074 3071 3072 3072 3074 3075 3073 3073 3075 3075 3075 3076 3079 3081 3081 3082 3083 3085 3088 3089 3093 3096 3098 3099 3099 3097 3097 3101 3103 3103 3104 3106 3109 3111 3112 3113 3116 3118 3119 3121 3123 3125 3124 3124 3124 3123 3124 3122 3117 3117 3120 3123 3125 3121 3119 3120 3120 3121 3123 3125 3127 3128 3129 3130 3131 3133 3135 3137 3139
3084 3084 3084 3082 3081 3081 3082 3081 3077 3076 3077 3078 3080 3081 3082 3084 3081 3075 3071 3071 3072 3070 3069 3072 3073 3072 3073 3073 3073 3074 3075 3076 3078 3079 3079 3079 3080 3080 3081 3083 3086 3090 3091 3091 3092 3095 3096 3097 3099 3101 3103 3105 3107 3108 3110 3112 3113 3115 3117 3120 3121 3121 3122 3120 3117 3117 3115 3112 3114 3117 3119 3117 3112 3114 3118 3118 3119 3120 3121 3123 3125 3125 3126 3127 3129 3131 3133 3135
3079 3080 3082 3080 3077 3076 3077 3076 3074 3072 3073 3075 3076 3077 3079 3079 3071 3064 3066 3071 3070 3066 3067 3068 3067 3068 3070 3070 3071 3072 3073 3074 3075 3076 3077 3078 3077 3076 3078 3079 3081 3083 3083 3086 3090 3092 3093 3094 3096 3098 3098 3099 3101 3102 3103 3105 3107 3109 3110 3112 3114 3115 3117 3116 3113 3112 3110 3109 3111 3114 3115 3110 3107 3110 3114 3115 3116 3117 3119 3121 3122 3122 3123 3125 3126 3127 3129 3132
3075 3075 3077 3077 3074 3070 3070 3071 3069 3068 3070 3071 3072 3074 3075 3071 3063 3061 3065 3068 3067 3066 3065 3064 3062 3063 3064 3066 3068 3070 3070 3071 3073 3074 3075 3076 3075 3074 3075 3077 3079 3081 3083 3086 3087 3089 3089 3088 3087 3090 3090 3092 3095 3096 3099 3102 3104 3105 3107 3109 3108 3106 3108 3109 3109 3109 3109 3108 3109 3111 3109 3105 3104 3106 3109 3112 3113 3114 3116 3118 3119 3119 3121 3123 3125 3126 3127 3129
3070 3071 3073 3073 3069 3064 3064 3066 3065 3065 3066 3067 3069 3069 3065 3060 3060 3063 3065 3066 3067 3064 3060 3059 3060 3061 3061 3063 3065 3066 3068 3069 3071 3072 3072 3071 3070 3070 3071 3073 3075 3079 3081 3083 3083 3084 3085 3081 3080 3085 3087 3089 3091 3093 3097 3100 3100 3102 3105 3105 3100 3099 3104 3107 3107 3107 3108 3107 3106 3105 3102 3101 3103 3104 3106 3109 3109 3110 3113 3114 3116 3117 3119 3122 3124 3124 3125 3126
3064 3066 3069 3068 3063 3060 3061 3061 3061 3062 3062 3063 3064 3060 3055 3056 3060 3062 3062 3063 3063 3060 3056 3056 3058 3059 3059 3060 3062 3064 3066 3067 3068 3068 3067 3067 3067 3067 3069 3070 3072 3074 3075 3077 3078 3080 3080 3076 3077 3084 3085 3086 3088 3090 3094 3095 3095 3097 3098 3095 3094 3099 3105 3106 3105 3105 3106 3105 3101 3099 3099 3099 3101 3101 3103 3105 3106 3108 3109 3109 3111 3114 3116 3119 3120 3121 3123 3123
3058 3061 3065 3063 3059 3057 3057 3056 3057 3058 3058 3058 3057 3052 3051 3054 3057 3058 3060 3060 3060 3059 3059 3057 3057 3057 3057 3058 3059 3061 3063 3064 3065 3064 3063 3064 3063 3062 3065 3067 3069 3071 3072 3074 3076 3076 3077 3075 3075 3080 3081 3082 3086 3088 3090 3090 3091 3091 3090 3091 3096 3101 3103 3103 3103 3103 3104 3102 3098 3096 3096 3097 3098 3098 3099 3102 3103 3105 3106 3107 3108 3110 3113 3116 3117 3119 3119 3119
3051 3055 3059 3058 3055 3054 3053 3052 3053 3053 3053 3052 3049 3048 3049 3051 3052 3056 3058 3059 3059 3058 3058 3058 3056 3055 3056 3056 3055 3056 3058 3059 3060 3061 3060 3059 3057 3057 3061 3063 3066 3068 3070 3073 3074 3075 3076 3074 3073 3076 3077 3079 3084 3086 3084 3085 3088 3088 3088 3091 3095 3095 3095 3096 3097 3097 3098 3099 3096 3093 3093 3093 3093 3094 3096 3099 3100 3101 3103 3104 3105 3107 3110 3113 3114 3115 3115 3116
3045 3049 3054 3053 3051 3050 3048 3048 3048 3048 3048 3045 3044 3045 3047 3047 3050 3054 3056 3057 3056 3055 3055 3056 3056 3054 3054 3054 3052 3052 3054 3055 3055 3056 3057 3055 3053 3053 3057 3060 3062 3065 3069 3071 3070 3071 3074 3072 3070 3072 3074 3077 3079 3078 3076 3078 3082 3085 3087 3088 3089 3088 3089 3090 3090 3090 3092 3094 3093 3092 3090 3087 3087 3091 3094 3096 3097 3098 3099 3100 3102 3103 3105 3108 3109 3110 3112 3114
3041 3044 3050 3049 3046 3044 3043 3044 3045 3044 3042 3040 3041 3043 3044 3046 3048 3051 3053 3054 3054 3053 3051 3052 3053 3052 3049 3050 3051 3050 3050 3052 3052 3052 3051 3051 3051 3051 3054 3056 3058 3061 3065 3067 3066 3067 3071 3069 3067 3069 3072 3071 3069 3068 3069 3072 3076 3078 3079 3080 3081 3083 3084 3086 3086 3085 3087 3089 3090 3090 3087 3081 3083 3088 3092 3094 3095 3096 3096 3097 3098 3100 3101 3103 3105 3106 3109 3110
3039 3040 3045 3045 3039 3037 3040 3041 3041 3040 3039 3038 3041 3042 3043 3044 3046 3047 3050 3052 3052 3051 3050 3050 3051 3050 3048 3047 3048 3049 3048 3047 3048 3049 3047 3047 3048 3050 3053 3057 3058 3059 3061 3062 3062 3063 3065 3065 3064 3065 3065 3062 3062 3065 3068 3070 3072 3073 3072 3073 3076 3079 3080 3081 3081 3080 3082 3084 3084 3086 3083 3078 3081 3086 3089 3091 3093 3093 3094 3095 3095 3096 3098 3100 3101 3103 3106 3107
3037 3037 3041 3040 3034 3032 3036 3038 3038 3038 3037 3037 3039 3040 3041 3043 3043 3044 3047 3048 3048 3048 3048 3047 3047 3048 3049 3046 3044 3046 3046 3042 3043 3044 3042 3043 3045 3047 3051 3054 3054 3055 3055 3054 3054 3057 3060 3061 3059 3059 3059 3059 3060 3064 3066 3067 3069 3071 3070 3071 3075 3076 3076 3076 3077 3078 3080 3079 3080 3083 3079 3073 3077 3084 3086 3088 3090 3090 3092 3092 3091 3093 3095 3096 3098 3100 3103 3105
3035 3034 3035 3035 3030 3029 3031 3033 3035 3036 3035 3035 3036 3037 3038 3040 3040 3042 3044 3044 3044 3044 3044 3044 3044 3045 3045 3043 3041 3042 3041 3037 3037 3039 3038 3039 3041 3043 3044 3044 3044 3047 3050 3049 3050 3053 3055 3054 3053 3054 3056 3057 3058 3060 3062 3063 3065 3065 3065 3068 3071 3071 3072 3074 3075 3076 3076 3075 3077 3080 3075 3068 3072 3081 3085 3085 3086 3087 3088 3089 3088 3089 3091 3093 3094 3097 3100 3102
3033 3032 3032 3031 3028 3027 3028 3030 3031 3031 3031 3032 3032 3032 3033 3035 3037 3039 3040 3040 3040 3040 3040 3040 3041 3040 3038 3037 3037 3037 3037 3034 3031 3032 3033 3032 3032 3034 3036 3037 3038 3041 3043 3044 3046 3049 3048 3046 3048 3051 3053 3053 3053 3053 3054 3056 3058 3057 3057 3061 3064 3067 3070 3071 3072 3074 3072 3071 3074 3075 3070 3067 3072 3079 3082 3083 3082 3082 3085 3086 3086 3087 3089 3090 3091 3093 3096 3098
3031 3030 3029 3029 3027 3026 3026 3028 3028 3027 3027 3027 3026 3027 3028 3030 3032 3034 3034 3034 3035 3036 3037 3036 3036 3035 3032 3033 3033 3033 3034 3033 3029 3027 3027 3026 3025 3026 3030 3031 3033 3035 3037 3038 3039 3040 3039 3038 3039 3041 3042 3043 3043 3041 3043 3047 3050 3051 3052 3055 3058 3062 3065 3066 3068 3070 3066 3066 3071 3069 3066 3069 3073 3076 3078 3080 3079 3078 3081 3084 3084 3085 3087 3089 3089 3090 3093 3096
3030 3028 3026 3024 3024 3024 3025 3026 3026 3025 3025 3024 3023 3025 3027 3027 3028 3030 3030 3031 3032 3033 3033 3033 3032 3031 3029 3029 3029 3029 3029 3029 3027 3024 3023 3022 3021 3021 3024 3026 3028 3030 3032 3034 3035 3034 3033 3032 3030 3029 3029 3032 3034 3037 3040 3044 3047 3048 3049 3051 3053 3057 3060 3062 3063 3061 3060 3065 3067 3064 3066 3070 3071 3072 3075 3077 3076 3076 3078 3081 3082 3082 3084 3086 3086 3087 3090 3093
3030 3029 3026 3023 3021 3022 3023 3024 3024 3024 3024 3024 3023 3024 3025 3025 3025 3026 3028 3029 3030 3030 3029 3029 3029 3028 3026 3026 3025 3024 3024 3024 3024 3023 3021 3019 3018 3017 3018 3022 3025 3026 3028 3031 3033 3032 3030 3027 3025 3025 3025 3027 3032 3037 3040 3041 3043 3044 3046 3048 3050 3052 3055 3056 3056 3055 3059 3063 3061 3060 3066 3068 3068 3071 3073 3074 3075 3075 3076 3079 3079 3079 3081 3082 3082 3085 3089 3091
3029 3028 3028 3026 3023 3022 3022 3023 3023 3023 3023 3023 3023 3023 3023 3023 3024 3024 3025 3025 3026 3027 3026 3026 3027 3026 3024 3023 3022 3020 3020 3019 3019 3019 3019 3017 3015 3012 3011 3015 3021 3024 3025 3027 3029 3030 3026 3023 3023 3024 3023 3025 3029 3033 3036 3037 3039 3041 3043 3044 3045 3048 3049 3050 3050 3053 3057 3057 3055 3059 3064 3064 3065 3070 3071 3071 3074 3074 3075 3076 3076 3076 3078 3078 3080 3083 3087 3088
3027 3026 3026 3026 3024 3023 3022 3022 3022 3022 3022 3022 3022 3022 3022 3022 3023 3023 3023 3022 3022 3024 3024 3023 3023 3022 3021 3020 3020 3018 3019 3018 3015 3015 3016 3015 3014 3012 3009 3009 3014 3019 3022 3023 3024 3026 3023 3020 3022 3022 3020 3021 3024 3028 3031 3033 3035 3037 3039 3040 3041 3043 3045 3046 3048 3051 3053 3053 3055 3060 3061 3061 3064 3068 3068 3070 3072 3071 3072 3073 3073 3074 3075 3075 3078 3080 3082 3084
3026 3025 3024 3024 3023 3022 3022 3022 3021 3020 3020 3020 3020 3020 3021 3021 3020 3020 3020 3020 3019 3020 3021 3020 3019 3019 3018 3017 3017 3017 3017 3018 3014 3013 3014 3014 3013 3014 3012 3009 3009 3013 3017 3020 3021 3022 3021 3018 3018 3019 3017 3017 3019 3023 3027 3029 3030 3033 3035 3037 3038 3040 3041 3043 3046 3048 3050 3051 3054 3057 3057 3057 3062 3065 3066 3068 3068 3068 3068 3070 3071 3073 3073 3074 3076 3078 3080 3082
3024 3024 3023 3022 3020 3020 3020 3020 3020 3018 3018 3018 3019 3018 3018 3018 3018 3017 3017 3018 3018 3018 3018 3018 3017 3016 3015 3015 3015 3015 3015 3015 3013 3011 3013 3012 3012 3013 3013 3010 3010 3010 3012 3016 3019 3020 3019 3017 3015 3016 3014 3012 3014 3018 3021 3025 3028 3029 3029 3030 3033 3035 3037 3039 3041 3044 3047 3049 3051 3052 3051 3053 3058 3062 3062 3062 3064 3064 3065 3067 3069 3071 3071 3073 3075 3077 3078 3081
3022 3022 3022 3020 3018 3018 3019 3018 3018 3017 3016 3016 3017 3016 3016 3015 3016 3016 3014 3014 3016 3017 3016 3016 3015 3015 3013 3012 3013 3014 3012 3011 3009 3008 3009 3009 3010 3012 3010 3010 3011 3011 3010 3014 3016 3017 3018 3016 3015 3016 3014 3010 3011 3014 3018 3023 3025 3020 3018 3023 3029 3032 3034 3036 3038 3041 3044 3046 3047 3047 3047 3050 3054 3056 3056 3058 3060 3061 3062 3065 3067 3069 3070 3071 3073 3075 3076 3078